カタログに戻る

STARLINK-35129

運用中通信VLEO
NORAD 66077·PAYLOAD·🇺🇸 United States

打ち上げ Oct 19, 2025 から Cape Canaveral Space Force Station

Loading…

次のパス (今後24時間)

TLE

最新Source: CelesTrak SupGP

元期: Sep 14, 2026, 23:06 UTC

1 66077C 25235V   26257.96298611  .00034877  00000+0  10307-2 0  2575
2 66077  53.1567  83.5627 0001184  83.7666   2.4711 15.34366837    18

AllMySatでSTARLINK-35129をリアルタイム追跡

Download on the App Store